FW7011 Weather Reports


time (UTC)temp
F
wind
direction
speed
knots
gust
knots
rain 1hr
in
rain 24hr
in
rain mn
in
humidity
%
barometer
mb
20260504130522 58 217 0.0 1.7 0.00 0.00 0.00 57 1018.2
20260504110410 40 120 3.5 3.5 0.00 0.00 0.00 90 1017.9
20260504100326 38 125 2.6 5.2 0.00 0.00 0.00 89 1017.7
20260504081720 39 117 5.2 6.1 0.00 0.00 0.00 84 1017.7
20260504081216 39 108 4.3 5.2 0.00 0.00 0.00 85 1017.9
20260504080712 39 117 4.3 4.3 0.00 0.00 0.00 84 1018.2
20260504080209 39 100 2.6 3.5 0.00 0.00 0.00 87 1018.1
20260504070137 40 114 5.2 5.2 0.00 0.00 0.00 84 1018.0
20260504050525 42 108 3.5 4.3 0.00 0.00 0.00 84 1018.2
20260504050023 42 109 2.6 4.3 0.00 0.00 0.00 83 1018.1
20260504045519 42 102 2.6 4.3 0.00 0.00 0.00 84 1018.1
20260504045015 42 120 1.7 1.7 0.00 0.00 0.00 82 1017.9
20260504044512 42 44 3.5 3.5 0.00 0.00 0.00 83 1018.1
20260504044009 42 107 2.6 4.3 0.00 0.00 0.00 82 1018.1
20260504043506 43 124 2.6 4.3 0.00 0.00 0.00 80 1018.0
20260504043004 43 108 2.6 4.3 0.00 0.00 0.00 81 1017.8
20260504042500 43 100 1.7 3.5 0.00 0.00 0.00 81 1018.0
20260504041957 43 108 3.5 4.3 0.00 0.00 0.00 80 1018.0
20260504041453 43 105 3.5 5.2 0.00 0.00 0.00 80 1017.9
20260504040949 43 120 2.6 4.3 0.00 0.00 0.00 80 1017.9
20260504040447 43 119 3.5 5.2 0.00 0.00 0.00 80 1018.0
20260504035943 44 112 2.6 3.5 0.00 0.00 0.00 78 1018.1
20260504035441 44 115 3.5 4.3 0.00 0.00 0.00 79 1017.9
20260504034937 44 120 3.5 4.3 0.00 0.00 0.00 78 1018.0
20260504034435 44 104 0.9 2.6 0.00 0.00 0.00 76 1018.1
20260504033931 48 113 3.5 6.1 0.00 0.00 0.00 69 1017.8
20260504033429 47 89 4.3 7.0 0.00 0.00 0.00 66 1017.7
20260504032926 45 108 5.2 5.2 0.00 0.00 0.00 77 1018.0
20260504032423 44 105 5.2 6.1 0.00 0.00 0.00 77 1017.6
20260504031920 46 101 6.1 6.1 0.00 0.00 0.00 69 1017.7
20260504031417 44 107 4.3 5.2 0.00 0.00 0.00 76 1017.7
20260504030913 46 113 4.3 5.2 0.00 0.00 0.00 74 1018.1
20260504030410 45 108 5.2 6.1 0.00 0.00 0.00 75 1018.3
20260504025906 46 117 4.3 4.3 0.00 0.00 0.00 74 1018.2
20260504025403 47 98 3.5 3.5 0.00 0.00 0.00 72 1018.3
20260504024900 47 111 3.5 4.3 0.00 0.00 0.00 68 1018.3
20260504024356 47 99 0.9 2.6 0.00 0.00 0.00 68 1018.0
20260504023854 47 112 0.9 1.7 0.00 0.00 0.00 68 1018.1
20260504023350 48 100 1.7 4.3 0.00 0.00 0.00 68 1017.9
20260504022846 47 66 1.7 1.7 0.00 0.00 0.00 70 1017.8
20260504022343 47 114 5.2 7.0 0.00 0.00 0.00 70 1017.8
20260504021839 47 117 4.3 6.1 0.00 0.00 0.00 70 1017.9
20260504021337 48 114 5.2 6.1 0.00 0.00 0.00 67 1017.9
20260504020834 48 109 5.2 6.1 0.00 0.00 0.00 68 1017.8
20260504020331 48 110 5.2 6.1 0.00 0.00 0.00 68 1017.9
20260504015826 49 125 6.1 6.1 0.00 0.00 0.00 67 1017.8
20260504015323 50 115 5.2 6.1 0.00 0.00 0.00 64 1017.8
20260504014819 51 115 4.3 4.3 0.00 0.00 0.00 63 1017.4
20260504014315 52 111 4.3 5.2 0.00 0.00 0.00 56 1017.6
20260504013813 51 75 2.6 3.5 0.00 0.00 0.00 52 1017.3
20260504013311 51 109 4.3 6.1 0.00 0.00 0.00 61 1017.1
20260504012807 50 127 4.3 6.1 0.00 0.00 0.00 61 1017.1
20260504012305 52 127 5.2 6.1 0.00 0.00 0.00 60 1017.4
20260504011802 54 116 2.6 3.5 0.00 0.00 0.00 47 1017.1
20260504011259 54 32 2.6 3.5 0.00 0.00 0.00 50 1017.0
20260504010754 53 63 3.5 3.5 0.00 0.00 0.00 52 1017.1
20260504010250 53 78 2.6 3.5 0.00 0.00 0.00 50 1016.9
20260504005747 53 94 3.5 4.3 0.00 0.00 0.00 54 1017.0
20260504005244 53 104 4.3 5.2 0.00 0.00 0.00 54 1016.8
20260504004742 53 94 4.3 5.2 0.00 0.00 0.00 54 1016.6
20260504004239 53 102 4.3 5.2 0.00 0.00 0.00 53 1016.5
20260504003735 54 106 4.3 5.2 0.00 0.00 0.00 53 1016.8
20260504003232 54 99 4.3 4.3 0.00 0.00 0.00 51 1016.7
20260504002729 55 111 3.5 5.2 0.00 0.00 0.00 51 1016.8
20260504002226 55 98 4.3 4.3 0.00 0.00 0.00 49 1016.7
20260504001724 56 105 3.5 4.3 0.00 0.00 0.00 47 1016.9
20260504001220 57 101 3.5 4.3 0.00 0.00 0.00 46 1016.7
20260504000717 58 93 2.6 4.3 0.00 0.00 0.00 43 1016.6
20260504000214 58 109 3.5 3.5 0.00 0.00 0.00 42 1016.5
20260503235713 59 111 3.5 3.5 0.00 0.00 0.00 41 1016.5
20260503235209 60 124 2.6 3.5 0.00 0.00 0.00 39 1016.7
20260503234707 61 115 1.7 2.6 0.00 0.00 0.00 38 1016.6
20260503234205 62 115 0.0 1.7 0.00 0.00 0.00 35 1016.5
20260503233701 62 121 1.7 3.5 0.00 0.00 0.00 36 1016.6
20260503233157 63 183 1.7 3.5 0.00 0.00 0.00 34 1016.4
20260503232654 64 144 2.6 4.3 0.00 0.00 0.00 33 1016.2
20260503232151 66 125 1.7 2.6 0.00 0.00 0.00 30 1016.4
20260503231650 67 126 1.7 3.5 0.00 0.00 0.00 32 1016.2
20260503231145 66 170 0.0 1.7 0.00 0.00 0.00 29 1016.2
20260503230642 67 91 1.7 1.7 0.00 0.00 0.00 30 1016.2
20260503230139 66 109 0.9 6.1 0.00 0.00 0.00 31 1016.0
20260503225637 67 118 2.6 2.6 0.00 0.00 0.00 30 1016.4
20260503225136 67 122 1.7 3.5 0.00 0.00 0.00 29 1016.2
20260503224634 67 267 1.7 4.3 0.00 0.00 0.00 29 1016.5
20260503224132 67 48 1.7 4.3 0.00 0.00 0.00 25 1016.1
20260503223630 66 262 1.7 4.3 0.00 0.00 0.00 27 1016.6
20260503223126 68 253 0.9 2.6 0.00 0.00 0.00 30 1016.5
20260503222623 68 94 3.5 3.5 0.00 0.00 0.00 28 1016.2
20260503222121 68 166 0.9 4.3 0.00 0.00 0.00 29 1016.5
20260503221619 67 130 3.5 3.5 0.00 0.00 0.00 27 1016.5
20260503221116 68 41 3.5 4.3 0.00 0.00 0.00 29 1016.2
20260503220613 67 240 6.1 7.8 0.00 0.00 0.00 26 1016.4
20260503220109 68 198 2.6 7.8 0.00 0.00 0.00 27 1016.5
20260503215607 68 279 2.6 3.5 0.00 0.00 0.00 24 1016.5
20260503215103 66 233 6.1 7.0 0.00 0.00 0.00 26 1016.8
20260503214602 69 192 2.6 2.6 0.00 0.00 0.00 29 1016.6
20260503214058 67 277 5.2 7.0 0.00 0.00 0.00 26 1016.8
20260503213556 66 196 1.7 6.1 0.00 0.00 0.00 25 1016.8
20260503213053 66 259 6.1 7.8 0.00 0.00 0.00 26 1017.0
20260503212550 68 282 2.6 6.1 0.00 0.00 0.00 25 1016.9
20260503212047 68 175 0.9 6.1 0.00 0.00 0.00 25 1016.8
20260503211545 68 130 2.6 4.3 0.00 0.00 0.00 26 1017.0
20260503211040 67 102 1.7 5.2 0.00 0.00 0.00 29 1017.0
20260503210537 67 350 1.7 5.2 0.00 0.00 0.00 29 1017.1
20260503210032 66 248 6.1 8.7 0.00 0.00 0.00 28 1017.2
20260503205529 66 258 2.6 6.1 0.00 0.00 0.00 27 1017.1
20260503205026 65 241 3.5 9.6 0.00 0.00 0.00 25 1017.0
20260503204523 66 26 1.7 7.0 0.00 0.00 0.00 26 1016.9
20260503204020 65 346 1.7 5.2 0.00 0.00 0.00 26 1017.0
20260503203517 66 195 1.7 7.8 0.00 0.00 0.00 24 1017.2
20260503203014 66 278 2.6 7.0 0.00 0.00 0.00 29 1017.6
20260503202512 65 257 4.3 11.3 0.00 0.00 0.00 27 1017.5
20260503202010 65 244 7.0 11.3 0.00 0.00 0.00 25 1017.2
20260503201508 64 277 5.2 7.8 0.00 0.00 0.00 27 1017.6
20260503201005 64 244 5.2 13.9 0.00 0.00 0.00 26 1017.6
20260503200501 64 237 5.2 7.8 0.00 0.00 0.00 26 1017.7
20260503195957 65 341 6.1 6.1 0.00 0.00 0.00 26 1017.6
20260503195455 65 269 2.6 6.1 0.00 0.00 0.00 28 1017.8
20260503194951 65 305 2.6 4.3 0.00 0.00 0.00 32 1017.7
20260503194449 65 259 6.1 7.8 0.00 0.00 0.00 25 1018.1
20260503193943 64 196 2.6 6.1 0.00 0.00 0.00 27 1018.0
20260503193439 64 34 1.7 8.7 0.00 0.00 0.00 26 1018.2
20260503192935 64 249 1.7 3.5 0.00 0.00 0.00 32 1018.1
20260503192432 64 214 4.3 4.3 0.00 0.00 0.00 27 1017.9
20260503191927 64 251 1.7 4.3 0.00 0.00 0.00 27 1018.3
20260503191425 64 210 0.9 4.3 0.00 0.00 0.00 28 1018.4
20260503190921 63 330 3.5 5.2 0.00 0.00 0.00 32 1018.4
20260503190419 62 274 2.6 7.8 0.00 0.00 0.00 29 1018.6
20260503185915 62 206 3.5 4.3 0.00 0.00 0.00 28 1018.5
20260503185412 62 192 6.1 9.6 0.00 0.00 0.00 27 1018.5
20260503184911 62 6 3.5 6.1 0.00 0.00 0.00 27 1018.5
20260503184408 63 286 3.5 3.5 0.00 0.00 0.00 29 1018.7
20260503183904 62 247 2.6 4.3 0.00 0.00 0.00 28 1018.9
20260503183401 61 313 7.8 9.6 0.00 0.00 0.00 27 1018.9
20260503182858 62 230 9.6 12.2 0.00 0.00 0.00 30 1019.0
20260503182357 61 261 2.6 7.8 0.00 0.00 0.00 27 1019.3
20260503181854 60 301 2.6 7.0 0.00 0.00 0.00 27 1019.4
20260503181351 60 239 9.6 11.3 0.00 0.00 0.00 26 1019.4
20260503180847 61 327 3.5 8.7 0.00 0.00 0.00 30 1019.3
20260503180345 60 259 4.3 5.2 0.00 0.00 0.00 28 1019.4
20260503175841 59 255 2.6 8.7 0.00 0.00 0.00 30 1019.4
20260503175340 59 232 10.4 15.6 0.00 0.00 0.00 29 1019.5
20260503174835 60 280 7.0 9.6 0.00 0.00 0.00 30 1019.5
20260503174333 58 128 3.5 3.5 0.00 0.00 0.00 36 1019.6
20260503173828 58 261 4.3 4.3 0.00 0.00 0.00 36 1019.6
20260503173325 58 277 3.5 5.2 0.00 0.00 0.00 30 1019.9
20260503172822 58 252 6.1 7.0 0.00 0.00 0.00 31 1019.9
20260503172320 58 253 4.3 13.9 0.00 0.00 0.00 31 1020.1
20260503171815 59 257 7.8 11.3 0.00 0.00 0.00 31 1019.9
20260503171312 59 309 2.6 5.2 0.00 0.00 0.00 37 1020.0
20260503170809 57 293 6.1 7.8 0.00 0.00 0.00 34 1020.1
20260503170306 57 254 7.0 8.7 0.00 0.00 0.00 34 1020.0
20260503150658 52 37 6.1 7.8 0.00 0.00 0.00 38 1021.4
20260503150154 53 341 6.1 7.8 0.00 0.00 0.00 39 1021.3
20260503140119 50 358 3.5 4.3 0.00 0.00 0.00 43 1021.4
20260503131048 48 21 4.3 5.2 0.00 0.00 0.00 49 1021.1